Voltar ao catálogo

STARLINK-11685

AtivoComunicaçõesVLEO
NORAD 63552·PAYLOAD·🇺🇸 United States

Lançado Apr 13, 2025 de Cape Canaveral Space Force Station

Loading…

Próximas Passagens (próximas 24 horas)

TLE

AtualizadoSource: CelesTrak SupGP

Época: Sep 15, 2026, 02:44 UTC

1 63552C 25075E   26258.11437500  .00045621  00000+0  35422-3 0  2588
2 63552  43.0002  91.7250 0001795 273.4278  78.7932 15.70823512    12

Acompanhe STARLINK-11685 em tempo real com AllMySat

Download on the App Store